Location: Bad Dürkheim
(49.4618°N, 8.1724°E)
Time: 04:06:32
(UTC+00:00)

Cosmos 1269 Rocket - Pass Details

Date: 14 June 2025
Orbit: 768 x 776 km, 74.1° (Epoch: 12 July)

Event Time Altitude Azimuth Distance (km) Brightness Sun altitude
Exits shadow 21:20:30 13° 176° (S) 2,090 5.7 -11.9°
Maximum altitude 21:24:55 48° 106° (ESE) 1,010 4.3 -12.3°
Drops below altitude 10° 21:29:58 10° 33° (NNE) 2,330 6.9 -12.7°
Sets 21:32:26 0° 28° (NNE) 3,263 7.8 -12.8°
